• In Austria
  • List of Countries
  • For 7 days
  • Water Temperature
  • Satellite Maps
  • Weather Map
  • News
  • Weather Widgets
  • user-avatar
    Login

    Hourly Weather Tavşanlı

    Today, 22 July, Sunday

    Time Temperature Precipitation Wind Pressure Humidity
    00:00 +20°C° 0 mm 1 mps 681 mmHg 83%
    01:00 +20°C° 0 mm 1 mps 681 mmHg 85%
    02:00 +19°C° 0 mm 1 mps 681 mmHg 87%
    03:00 +19°C° 0 mm 1 mps 681 mmHg 88%
    04:00 +19°C° 0 mm 1 mps 681 mmHg 88%
    05:00 +16°C° 0 mm 0 mps 681 mmHg 89%
    06:00 +20°C° 0 mm 1 mps 681 mmHg 79%
    07:00 +22°C° 0 mm 1 mps 682 mmHg 69%
    08:00 +24°C° 0 mm 2 mps 682 mmHg 60%
    09:00 +26°C° 0 mm 2 mps 682 mmHg 53%
    10:00 +27°C° 0 mm 3 mps 682 mmHg 47%
    11:00 +28°C° 0 mm 3 mps 682 mmHg 40%
    12:00 +29°C° 0 mm 3 mps 682 mmHg 38%
    13:00 +30°C° 0 mm 4 mps 682 mmHg 36%
    14:00 +30°C° 0 mm 4 mps 682 mmHg 33%
    15:00 +30°C° 0 mm 4 mps 682 mmHg 33%
    16:00 +30°C° 0 mm 4 mps 682 mmHg 34%
    17:00 +30°C° 0 mm 4 mps 681 mmHg 34%
    18:00 +27°C° 0 mm 3 mps 681 mmHg 40%
    19:00 +25°C° 0 mm 2 mps 681 mmHg 45%
    20:00 +23°C° 0 mm 2 mps 680 mmHg 51%
    21:00 +23°C° 0 mm 1 mps 680 mmHg 53%
    22:00 +22°C° 0 mm 1 mps 680 mmHg 55%
    23:00 +21°C° 0 mm 1 mps 681 mmHg 57%

    Tomorrow, 23 July, Monday

    Time Temperature Precipitation Wind Pressure Humidity
    00:00 +21°C° 0 mm 1 mps 680 mmHg 57%
    01:00 +21°C° 0 mm 1 mps 680 mmHg 57%
    02:00 +21°C° 0 mm 1 mps 679 mmHg 56%
    03:00 +20°C° 0 mm 1 mps 679 mmHg 56%
    04:00 +20°C° 0 mm 1 mps 679 mmHg 55%
    05:00 +20°C° 0 mm 1 mps 679 mmHg 54%
    06:00 +22°C° 0 mm 1 mps 679 mmHg 49%
    07:00 +25°C° 0 mm 1 mps 679 mmHg 44%
    08:00 +27°C° 0 mm 2 mps 680 mmHg 38%
    09:00 +29°C° 0 mm 2 mps 680 mmHg 35%
    10:00 +30°C° 0 mm 2 mps 680 mmHg 31%
    11:00 +32°C° 0 mm 2 mps 679 mmHg 28%
    12:00 +33°C° 0 mm 3 mps 679 mmHg 27%
    13:00 +34°C° 0 mm 4 mps 679 mmHg 26%
    14:00 +35°C° 0 mm 5 mps 678 mmHg 24%
    15:00 +34°C° 0 mm 5 mps 678 mmHg 25%
    16:00 +33°C° 0 mm 5 mps 678 mmHg 26%
    17:00 +33°C° 0 mm 5 mps 677 mmHg 27%
    18:00 +30°C° 0 mm 4 mps 677 mmHg 32%
    19:00 +27°C° 0 mm 3 mps 677 mmHg 38%
    20:00 +25°C° 0 mm 2 mps 676 mmHg 43%
    21:00 +24°C° 0 mm 2 mps 676 mmHg 45%
    22:00 +24°C° 0 mm 2 mps 676 mmHg 48%
    23:00 +23°C° 0 mm 2 mps 676 mmHg 50%

    Day after tomorrow, 24 July, Tuesday

    Time Temperature Precipitation Wind Pressure Humidity
    00:00 +21°C° 0 mm 2 mps 676 mmHg 51%
    01:00 +21°C° 0 mm 2 mps 675 mmHg 51%
    02:00 +20°C° 0 mm 2 mps 675 mmHg 52%
    03:00 +20°C° 0.1 mm 2 mps 675 mmHg 53%
    04:00 +20°C° 0.1 mm 2 mps 674 mmHg 54%
    05:00 +19°C° 0.1 mm 2 mps 674 mmHg 55%
    06:00 +21°C° 0.3 mm 2 mps 674 mmHg 50%
    07:00 +24°C° 0.3 mm 3 mps 675 mmHg 45%
    08:00 +27°C° 0.3 mm 4 mps 675 mmHg 41%
    09:00 +28°C° 0 mm 4 mps 676 mmHg 38%
    10:00 +28°C° 0 mm 5 mps 676 mmHg 36%
    11:00 +29°C° 0 mm 6 mps 676 mmHg 33%
    12:00 +29°C° 0.1 mm 5 mps 676 mmHg 36%
    13:00 +28°C° 0.1 mm 5 mps 676 mmHg 38%
    14:00 +28°C° 0.1 mm 5 mps 676 mmHg 40%
    15:00 +28°C° 0.3 mm 4 mps 676 mmHg 42%
    16:00 +27°C° 0.3 mm 4 mps 676 mmHg 45%
    17:00 +27°C° 0.3 mm 3 mps 676 mmHg 47%
    18:00 +25°C° 1 mm 3 mps 676 mmHg 53%
    19:00 +24°C° 1 mm 2 mps 676 mmHg 60%
    20:00 +21°C° 1 mm 2 mps 676 mmHg 66%
    21:00 +22°C° 0.4 mm 1 mps 676 mmHg 68%
    22:00 +21°C° 0.4 mm 1 mps 676 mmHg 71%
    23:00 +20°C° 0.4 mm 1 mps 676 mmHg 73%

    25 July, Wednesday

    Time Temperature Precipitation Wind Pressure Humidity
    00:00 +20°C° 0.2 mm 1 mps 676 mmHg 74%
    01:00 +20°C° 0.2 mm 1 mps 676 mmHg 76%
    02:00 +19°C° 0.2 mm 1 mps 676 mmHg 77%
    03:00 +19°C° 0 mm 1 mps 676 mmHg 79%
    04:00 +18°C° 0 mm 1 mps 676 mmHg 81%
    05:00 +18°C° 0 mm 1 mps 676 mmHg 82%
    06:00 +19°C° 0 mm 1 mps 677 mmHg 76%
    07:00 +21°C° 0 mm 1 mps 677 mmHg 69%
    08:00 +22°C° 0 mm 1 mps 678 mmHg 62%
    09:00 +24°C° 0 mm 1 mps 678 mmHg 56%
    10:00 +25°C° 0 mm 2 mps 678 mmHg 50%
    11:00 +26°C° 0 mm 2 mps 679 mmHg 43%
    12:00 +27°C° 0 mm 2 mps 678 mmHg 42%
    13:00 +28°C° 0 mm 2 mps 678 mmHg 40%
    14:00 +28°C° 0 mm 3 mps 678 mmHg 39%
    15:00 +28°C° 0.1 mm 3 mps 678 mmHg 40%
    16:00 +28°C° 0.1 mm 2 mps 678 mmHg 42%
    17:00 +27°C° 0.1 mm 2 mps 678 mmHg 44%
    18:00 +26°C° 0 mm 2 mps 678 mmHg 51%
    19:00 +24°C° 0 mm 2 mps 678 mmHg 57%
    20:00 +21°C° 0 mm 2 mps 678 mmHg 64%
    21:00 +21°C° 0 mm 2 mps 678 mmHg 68%
    22:00 +21°C° 0 mm 1 mps 678 mmHg 72%
    23:00 +20°C° 0 mm 1 mps 678 mmHg 76%

    26 July, Thursday

    Time Temperature Precipitation Wind Pressure Humidity
    00:00 +20°C° 0 mm 1 mps 678 mmHg 77%
    01:00 +20°C° 0 mm 1 mps 678 mmHg 79%
    02:00 +19°C° 0 mm 1 mps 678 mmHg 81%
    03:00 +19°C° 0 mm 1 mps 678 mmHg 81%
    04:00 +17°C° 0 mm 0 mps 678 mmHg 82%
    05:00 +17°C° 0 mm 0 mps 678 mmHg 83%
    06:00 +21°C° 0 mm 1 mps 678 mmHg 75%
    07:00 +23°C° 0 mm 1 mps 679 mmHg 66%
    08:00 +25°C° 0 mm 1 mps 679 mmHg 57%
    09:00 +26°C° 0 mm 1 mps 679 mmHg 51%
    10:00 +28°C° 0 mm 1 mps 680 mmHg 45%
    11:00 +29°C° 0 mm 1 mps 680 mmHg 39%
    12:00 +29°C° 0.1 mm 1 mps 680 mmHg 39%
    13:00 +29°C° 0.1 mm 1 mps 679 mmHg 39%
    14:00 +30°C° 0.1 mm 1 mps 679 mmHg 38%
    15:00 +29°C° 0.1 mm 2 mps 679 mmHg 41%
    16:00 +29°C° 0.1 mm 2 mps 679 mmHg 43%
    17:00 +28°C° 0.1 mm 2 mps 679 mmHg 46%
    18:00 +27°C° 0.3 mm 2 mps 679 mmHg 52%
    19:00 +25°C° 0.3 mm 2 mps 679 mmHg 59%
    20:00 +23°C° 0.3 mm 2 mps 679 mmHg 65%
    21:00 +23°C° 0.1 mm 1 mps 679 mmHg 69%
    22:00 +22°C° 0.1 mm 1 mps 679 mmHg 74%
    23:00 +21°C° 0.1 mm 1 mps 679 mmHg 78%

    27 July, Friday

    Time Temperature Precipitation Wind Pressure Humidity
    00:00 +21°C° 0.1 mm 1 mps 679 mmHg 79%
    01:00 +21°C° 0.1 mm 1 mps 679 mmHg 79%
    02:00 +18°C° 0.1 mm 0 mps 679 mmHg 80%
    03:00 +18°C° 0.1 mm 0 mps 679 mmHg 80%
    04:00 +18°C° 0.1 mm 0 mps 679 mmHg 81%
    05:00 +18°C° 0.1 mm 0 mps 679 mmHg 81%
    06:00 +22°C° 0.1 mm 1 mps 680 mmHg 73%
    07:00 +24°C° 0.1 mm 1 mps 680 mmHg 65%
    08:00 +25°C° 0.1 mm 1 mps 681 mmHg 56%
    09:00 +27°C° 0.1 mm 2 mps 681 mmHg 51%
    10:00 +28°C° 0.1 mm 2 mps 681 mmHg 45%
    11:00 +30°C° 0.1 mm 2 mps 681 mmHg 40%
    12:00 +30°C° 0.1 mm 2 mps 681 mmHg 40%
    13:00 +30°C° 0.1 mm 2 mps 681 mmHg 40%
    14:00 +30°C° 0.1 mm 2 mps 680 mmHg 40%
    15:00 +30°C° 0.3 mm 3 mps 680 mmHg 44%
    16:00 +29°C° 0.3 mm 3 mps 680 mmHg 47%
    17:00 +28°C° 0.3 mm 3 mps 680 mmHg 51%
    18:00 +26°C° 1 mm 3 mps 680 mmHg 58%
    19:00 +25°C° 1 mm 2 mps 680 mmHg 64%
    20:00 +24°C° 1 mm 2 mps 680 mmHg 71%
    21:00 +23°C° 0.4 mm 2 mps 680 mmHg 74%
    22:00 +22°C° 0.4 mm 1 mps 680 mmHg 76%
    23:00 +22°C° 0.4 mm 1 mps 680 mmHg 79%
    Show more